This is the latest recevied weather packets stored in our database for station/object KC9Q. If no packets are shown the sender has not sent any weather packets the latest 10 day(s).
| Time | Temp. | Humidity | Pressure | Rain* | Wind** | Luminosity | Snow |
|---|---|---|---|---|---|---|---|
| 1778119898 | 13.89° C | 70% | 1015.1 hPa | 0 mm | - | 0 W/m² | - |
| 1778119597 | 13.89° C | 69% | 1015.2 hPa | 0 mm | - | 0 W/m² | - |
| 1778119293 | 14.44° C | 69% | 1015.4 hPa | 0 mm | - | 0 W/m² | - |
| 1778118991 | 14.44° C | 68% | 1015.6 hPa | 0 mm | - | 0 W/m² | - |
| 1778118688 | 14.44° C | 68% | 1015.9 hPa | 0 mm | - | 0 W/m² | - |
| 1778118385 | 13.89° C | 68% | 1015.5 hPa | 0 mm | - | 0 W/m² | - |
| 1778118081 | 13.89° C | 74% | 1015.2 hPa | 0 mm | - | 0 W/m² | - |
| 1778117778 | 13.89° C | 76% | 1015.2 hPa | 0 mm | - | 0 W/m² | - |
| 1778117475 | 13.89° C | 79% | 1015 hPa | 0 mm | - | 0 W/m² | - |
| 1778117172 | 13.89° C | 76% | 1014.9 hPa | 0 mm | - | 0 W/m² | - |
| 1778116867 | 13.89° C | 75% | 1014.7 hPa | 0 mm | - | 0 W/m² | - |
| 1778116566 | 13.89° C | 74% | 1015 hPa | 0 mm | - | 0 W/m² | - |
| 1778116261 | 14.44° C | 74% | 1015 hPa | 0 mm | - | 0 W/m² | - |
| 1778115956 | 14.44° C | 73% | 1014.9 hPa | 0 mm | - | 0 W/m² | - |
| 1778115653 | 14.44° C | 71% | 1015 hPa | 0 mm | - | 0 W/m² | - |
| 1778115350 | 15° C | 68% | 1014.9 hPa | 0 mm | - | 1 W/m² | - |
| 1778115046 | 15° C | 66% | 1014.9 hPa | 0 mm | - | 1 W/m² | - |
| 1778114743 | 15° C | 67% | 1014.8 hPa | 0 mm | - | 2 W/m² | - |
| 1778114441 | 15° C | 66% | 1014.6 hPa | 0 mm | - | 5 W/m² | - |
| 1778114137 | 15° C | 67% | 1014.9 hPa | 0 mm | - | 7 W/m² | - |
| 1778113832 | 15° C | 67% | 1014.7 hPa | 0 mm | - | 11 W/m² | - |
| 1778113529 | 15° C | 67% | 1014.6 hPa | 0 mm | - | 18 W/m² | - |
| 1778113225 | 15° C | 67% | 1014.3 hPa | 0 mm | - | 17 W/m² | - |
| 1778112921 | 15° C | 67% | 1014 hPa | 0 mm | - | 21 W/m² | - |
| 1778112619 | 15° C | 66% | 1014.3 hPa | 0 mm | - | 25 W/m² | - |
* Rain latest hour (hover to see other rain measurements)
** Current wind speed in m/s (hover to see current wind gust speed)